Weather History for Laramie, WY

Change the Weather History Date:

Sunday, April 6, 2014

  Actual Average Record
Temperature  
Mean Temperature 32 °F 35 °F  
Max Temperature 44 °F 48 °F 72 °F (1959)
Min Temperature 19 °F 22 °F -8 °F (1983)
Degree Days  
Heating Degree Days 33 30  
Month to date heating degree days 194 182  
Since 1 July heating degree days 7235 7417  
Cooling Degree Days 0 0  
Month to date cooling degree days 0 0  
Year to date cooling degree days 0 0  
Moisture  
Dew Point 19 °F    
Average Humidity 61    
Maximum Humidity 92    
Minimum Humidity 30    
Precipitation  
Precipitation T in 0.03 in 0.11 in (1951)
Month to date precipitation T 0.15  
Year to date precipitation 1.73 1.34  
Sea Level Pressure  
Sea Level Pressure 29.92 in    
Wind  
Wind Speed 12 mph (West)    
Max Wind Speed 31 mph    
Max Gust Speed 38 mph    
Visibility 10 miles    
Events Rain    
T = Trace of Precipitation, MM = Missing Value Source: NWS Daily Summary

Daily Weather History Graph

Daily Weather History Graph

Search for Another Location

Airport:

Trip Planner

Search our weather history database for the weather conditions in past years. The results will help you decide how hot, cold, wet, or windy it might be!

Date:

Astronomy

Apr. 06, 2014 Rise Set
Actual Time 6:37 AM MDT 7:33 PM MDT
Civil Twilight 6:09 AM MDT 8:01 PM MDT
Nautical Twilight 5:35 AM MDT 8:34 PM MDT
Astronomical Twilight 5:01 AM MDT 9:09 PM MDT
Moon 11:38 AM MDT (4/6) 1:33 AM MDT (4/6)
Length of Visible Light 13h 52m
Length of Day
12h 55m
Waxing Crescent, 44% of the Moon is Illuminated
Apr 6
Waxing Crescent
Apr 7
First Quarter
Apr 15
Full
Apr 22
Last Quarter
Apr 29
New

Hourly Weather History & Observations

Time (MDT) Temp. Windchill Dew Point Humidity Pressure Visibility Wind Dir Wind Speed Gust Speed Precip Events Conditions
12:53 AM 21.9 °F 14.5 °F 19.9 °F 92% 29.91 in 10.0 mi SE 5.8 mph - N/A   Scattered Clouds
1:53 AM 23.0 °F 13.9 °F 19.9 °F 88% 29.91 in 10.0 mi SSE 8.1 mph - N/A   Overcast
2:53 AM 19.9 °F 13.4 °F 17.1 °F 89% 29.94 in 10.0 mi SSE 4.6 mph - N/A   Clear
3:53 AM 19.9 °F 11.1 °F 17.1 °F 89% 29.93 in 10.0 mi SE 6.9 mph - N/A   Clear
4:53 AM 19.9 °F 11.1 °F 17.1 °F 89% 29.92 in 10.0 mi SSE 6.9 mph - N/A   Mostly Cloudy
5:53 AM 21.9 °F 15.7 °F 18.0 °F 85% 29.92 in 10.0 mi South 4.6 mph - N/A   Overcast
6:53 AM 21.9 °F 13.4 °F 18.0 °F 85% 29.94 in 10.0 mi SE 6.9 mph - N/A   Overcast
7:53 AM 28.9 °F - 24.1 °F 82% 29.95 in 10.0 mi Calm Calm - N/A   Mostly Cloudy
8:53 AM 33.1 °F - 23.0 °F 66% 29.94 in 10.0 mi Calm Calm - N/A   Clear
9:53 AM 37.0 °F 31.6 °F 19.9 °F 50% 29.91 in 10.0 mi Variable 6.9 mph - N/A   Clear
10:53 AM 41.0 °F 31.9 °F 14.0 °F 33% 29.88 in 10.0 mi West 19.6 mph 31.1 mph N/A   Clear
11:53 AM 41.0 °F 33.1 °F 12.9 °F 32% 29.89 in 10.0 mi West 15.0 mph - N/A   Mostly Cloudy
12:53 PM 39.9 °F 30.2 °F 16.0 °F 38% 29.91 in 9.0 mi West 20.7 mph 27.6 mph 0.00 in   Overcast
1:53 PM 41.0 °F 32.2 °F 16.0 °F 36% 29.88 in 10.0 mi WNW 18.4 mph 27.6 mph N/A   Mostly Cloudy
2:53 PM 42.1 °F 33.1 °F 14.0 °F 32% 29.88 in 10.0 mi West 20.7 mph 26.5 mph N/A   Mostly Cloudy
3:53 PM 39.9 °F 28.8 °F 19.9 °F 45% 29.89 in 10.0 mi West 27.6 mph 34.5 mph N/A   Mostly Cloudy
4:53 PM 42.1 °F 33.6 °F 18.0 °F 38% 29.88 in 10.0 mi NW 18.4 mph - N/A   Mostly Cloudy
5:53 PM 39.0 °F 29.6 °F 18.0 °F 43% 29.89 in 6.0 mi NW 18.4 mph 33.4 mph 0.00 in Rain Light Rain
6:53 PM 37.9 °F 26.8 °F 16.0 °F 41% 29.91 in 10.0 mi WNW 24.2 mph - 0.00 in   Mostly Cloudy
7:53 PM 33.1 °F 22.2 °F 21.9 °F 64% 29.91 in 10.0 mi West 17.3 mph - N/A   Mostly Cloudy
8:53 PM 30.9 °F 22.8 °F 21.9 °F 69% 29.96 in 10.0 mi North 9.2 mph - N/A   Overcast
9:53 PM 30.0 °F 23.2 °F 24.1 °F 79% 29.95 in 10.0 mi NNW 6.9 mph - N/A   Mostly Cloudy
10:53 PM 28.0 °F 20.8 °F 21.9 °F 78% 29.96 in 10.0 mi NW 6.9 mph - N/A   Scattered Clouds
11:53 PM 28.0 °F 20.8 °F 23.0 °F 81% 29.97 in 10.0 mi NNW 6.9 mph - N/A   Overcast